Preview of NWS' New Version of Forecast
This preview is not operational and should not be used for support decisions.
Latest weather observations around

Roanoke, Roanoke Regional Airport (KROA)

Using International System of Units (Switch to English Units)
Date/ Time (EDT) Wind (kph) Vis. (km) Weather Sky Cond. Temp (°C) Rel. Humidity Wind Chill (°C) Heat Index (°C) Pressure Precip. (cm)
Air Dwpt 6 hour Altimeter (hPa) Sea level (hPa) 1 hr 3 hr 6 hr
Max Min
Jun 20 00:54 S 8 16.09 Mostly Cloudy BKN090 BKN110 26 19     67%   27 1014.9 1013.2      
Jun 19 23:54 WNW 8 16.09 Mostly Clear FEW110 27 18     60%   28 1014.6 1013.1      
Jun 19 22:54 WNW 5 16.09 Mostly Cloudy BKN080 BKN100 28 18     56%   29 1014.9 1013.1   0  
Jun 19 21:54 NNW 15 16.09 Partly Cloudy SCT085 29 18     53%   30 1014.2 1012.7      
Jun 19 20:54 NW 17 16.09 Partly Cloudy SCT065 30 19     53%   32 1013.6 1011.9 0    
Jun 19 19:54 NNW 13 16.09 Mostly Clear FEW070 FEW120 31 20     52%   33 1012.9 1011.2      
Jun 19 18:54 NW 18 16.09 Mostly Clear FEW060 34 19     41%   36 1012.2 1010.5      
Jun 19 17:54 WNW 22 16.09 Mostly Clear FEW060 34 18     39%   36 1012.2 1010.5      
Jun 19 16:54 WNW 17 16.09 Mostly Clear FEW060 35 18     37%   36 1012.5 1010.8      
Jun 19 15:54 NW 13 16.09 Mostly Clear FEW060 34 18     39%   36 1012.9 1011.1      
Jun 19 14:54 WNW 22 16.09 Mostly Clear FEW060 FEW120 34 19     41%   37 1013.9 1012      
Jun 19 13:54 NW 18 16.09 Mostly Clear FEW055 34 20     44%   36 1014.6 1012.9      
Jun 19 12:54 WNW 18 16.09 Mostly Clear FEW055 33 19     44%   35 1014.9 1013.3      
Jun 19 11:54   16.09 Mostly Clear FEW048 32 19     48%   33 1015.6 1014.1      
Jun 19 10:54 WNW 18 16.09 Mostly Clear FEW043 31 20     52%   33 1015.9 1014.4      
Jun 19 09:54 W 17 16.09 Mostly Clear FEW038 30 20     55%   32 1016.6 1015      
Jun 19 08:54 W 9 16.09 Clear CLR 28 21     63%   30 1016.9 1015.2      
Jun 19 07:54 WSW 13 16.09 Clear CLR 27 20     67%   28 1016.9 1015.3      
Jun 19 06:54 W 13 16.09 Clear CLR 26 19     69%   26 1016.9 1015.2      
Jun 19 05:54 WNW 13 16.09 Clear   26 19     69%   26 1016.9 1015.1      
Jun 19 04:54 W 11 16.09 Clear CLR 26 19     69%   26 1016.3 1014.6      
Jun 19 03:54 W 13 16.09 Clear CLR 26 20     71%   26 1016.3 1014.6      
Jun 19 02:54 W 9 16.09 Clear CLR 25 19     71%   25 1016.6 1014.8      
Jun 19 01:54 W 11 16.09 Clear CLR 25 19     71%   25 1016.9 1015.3      
Jun 19 00:54 W 11 16.09 Clear CLR 27 19     64%   28 1017.3 1015.5      
Jun 18 23:54 W 11 16.09 Clear CLR 27 20     67%   28 1017.3 1015.6      
Jun 18 22:54 W 11 16.09 Mostly Clear FEW065 27 20     65%   29 1016.9 1015.4      
Jun 18 21:54 W 11 16.09 Mostly Clear FEW070 28 20     61%   30 1016.6 1015.1      
Jun 18 21:11 WSW 9 16.09 Partly Cloudy SCT070 29 21     61%   31 1016.3        
Jun 18 21:02 W 5 16.09 Partly Cloudy SCT070 29 20     57%   31 1016.3        
Jun 18 20:54 W 8 16.09 Mostly Clear FEW070 30 20     55%   32 1016.3 1014.8      
Jun 18 19:54 WNW 8 16.09 Mostly Clear FEW060 33 19     45%   35 1016.3 1014.7      
Jun 18 18:54 WNW 13 16.09 Mostly Clear FEW060 34 18     40%   35 1016.6 1015.1      
Jun 18 17:54 11 16.09 Mostly Clear FEW060 34 17     36%   35 1016.9 1015.6      
Jun 18 16:54 NW 15 16.09 Mostly Clear FEW050 35 18     36%   36 1017.3 1015.7      
Jun 18 15:54 NW 15 16.09 Mostly Clear FEW050 35 18     36%   36 1018 1016.5      
Jun 18 14:54 W 13 16.09 Mostly Clear FEW055 35 19     39%   37 1019 1017.4      
Jun 18 13:54 W 18 16.09 Partly Cloudy SCT055 34 19     41%   36 1020 1018.2      
Jun 18 12:54 11 16.09 Partly Cloudy SCT044 33 21     50%   36 1020.3 1018.8      
Jun 18 11:54 9 16.09 Mostly Clear FEW038 32 22     56%   36 1020.7 1019.2      
Jun 18 10:54 Calm 16.09 Clear CLR 29 21     61%   32 1021 1019.4      
Jun 18 09:54 Calm 16.09 Clear CLR 28 21     65%   31 1021 1019.8      
Jun 18 08:54 WNW 8 16.09 Clear CLR 26 21     74%   26 1021.3 1020      
Jun 18 07:54 Calm 16.09 Clear CLR 23 21     85%   24 1021.3 1019.9      
Jun 18 06:54 N 5 16.09 Clear CLR 22 20     90%   22 1021.3 1019.8      
Jun 18 05:54 Calm 9.66 Fog/Mist FEW200 20 19     96%     1021.3 1019.8      
Jun 18 04:54 Calm 16.09 Clear CLR 22 20     90%   22 1021 1019.4      
Jun 18 03:54 WNW 5 16.09 Clear CLR 22 20     90%   22 1021 1019.4      
Jun 18 02:54 NNE 8 16.09 Clear CLR 22 20     87%   23 1020.7 1019.2      
Jun 18 01:54 Calm 16.09 Clear CLR 23 21     87%   23 1020.3 1019     0
Jun 18 00:54 Calm 16.09 Clear CLR 23 21     87%   24 1020.7 1019.2      
Jun 17 23:54 NE 8 16.09 Clear CLR 24 21     82%   25 1020.7 1019      
Jun 17 22:54 Calm 16.09 Clear CLR 23 22     91%   24 1020.7 1019.2   0  
Jun 17 21:54 Calm 16.09 Partly Cloudy FEW080 SCT140 24 22     90%   25 1020.3 1018.8      
Jun 17 20:54 NNW 9 16.09 Mostly Cloudy FEW034 SCT065 BKN080 25 22     84%   26 1019.7 1018.4 0    
Jun 17 20:33 Calm 16.09 Mostly Cloudy FEW034 SCT065 BKN085 27 19     61%   28 1019.7   0    
Jun 17 20:17 SW 13 2.41 Heavy Rain FEW038 BKN085 OVC110 27 19     61%   28 1020   0    
Jun 17 19:54 ENE 9 16.09 Mostly Cloudy SCT090 BKN110 30 20     55%   32 1019.7 1018      
Jun 17 18:54 SE 13 16.09 Partly Cloudy FEW060 SCT140 31 20     52%   33 1019.3 1018      
Jun 17 17:54 WNW 9 16.09 Partly Cloudy FEW060 SCT140 33 19     44%   35 1019.3 1017.8      
Jun 17 16:54 Calm 16.09 Partly Cloudy SCT055 SCT130 32 18     44%   33 1019.7 1018.2      
Jun 17 15:54 NNW 11 16.09 Partly Cloudy SCT060 33 18     41%   35 1020.3 1018.8      
Jun 17 14:54 Calm 16.09 Mostly Clear FEW055 33 18     41%   35 1021 1019.5      
Jun 17 13:54 NE 11 16.09 Clear CLR 32 19     45%   34 1021.7 1020.1      
Jun 17 12:54 NNE 18 16.09 Mostly Clear FEW042 FEW200 32 18     45%   33 1022 1020.6      
Jun 17 11:54 NE 21 16.09 Mostly Clear FEW042 31 18     46%   31 1022 1020.6      
Jun 17 10:54 Calm 16.09 Clear CLR 29 18     51%   30 1022 1020.4      
Jun 17 09:54 Calm 16.09 Clear CLR 27 18     56%   28 1021.7 1020.1      
Jun 17 08:54 NE 8 16.09 Clear CLR 25 18     66%   25 1021.3 1019.8      
Jun 17 07:54 Calm 16.09 Clear CLR 23 18     71%   24 1020.7 1019.4      
Jun 17 06:54 NE 9 16.09 Clear CLR 21 17     81%     1020.3 1018.9      
Jun 17 05:54 NE 8 16.09 Clear CLR 20 17     84%     1019.7 1018.2      
Jun 17 04:54 Calm 16.09 Clear CLR 20 17     81%     1019 1017.6      
Jun 17 03:54 NNE 8 16.09 Clear CLR 19 17     84%     1019 1017.7      
Jun 17 02:54 Calm 16.09 Clear CLR 21 17     76%     1019.7 1018.2      
Jun 17 01:54 Calm 16.09 Clear CLR 21 17     78%     1020 1018.5      
May 15 14:54 S 18 16.09 Mostly Cloudy FEW042 BKN100 BKN160 31 20     52%   33 1014.9 1013.5      
May 14 23:54 ENE 5 16.09 Cloudy OVC070 24 17     66%   24 1017.3 1015.8      
May 14 18:54 S 18 16.09 Partly Cloudy FEW070 SCT100 SCT250 31 17     43%   32 1014.9 1013.4      
May 14 12:54 S 8 16.09 Mostly Clear FEW048 31 17     43%   32 1018 1016.5      
May 14 11:54 8 16.09 Mostly Clear FEW048 30 17     45%   30 1018.3 1016.8      
May 13 17:54 WSW 15 16.09 Clear CLR 33 12     29%   32 1015.6 1014      
May 12 17:54 WSW 9 16.09 Mostly Cloudy FEW080 BKN160 33 13     31%   32 1016.9 1015.3      
May 12 07:54 W 5 16.09 Partly Cloudy SCT250 22 16     70%   22 1021 1019.7      
May 12 06:20 Calm 16.09 Partly Cloudy SCT250 19 14     73%     1020        
May 11 14:54 9 16.09 Partly Cloudy SCT060 30 13     35%   29 1017.3 1015.9      
Jun 12 02:54 WNW 8 16.09 Clear CLR 22 15     66%   22 1021.3 1019.9      
Jun 10 01:54 Calm 16.09 Clear CLR 15 12     83%     1018.3 1017.3      
Jun 09 11:54 NW 24 16.09 Partly Cloudy SCT043 SCT050 23 11     45%   23 1015.6 1014.7      
Jun 09 02:54 W 13 16.09 Mostly Cloudy BKN090 15 13     90%     1012.5 1011.8      
Jun 09 00:54 W 9 16.09 Cloudy OVC090 15 14     93%     1012.9 1012.3      
Jun 08 09:54 ENE 11 16.09 Mostly Cloudy BKN028 BKN035 16 11     72%     1016.3 1015.7      
Jun 07 22:54 NE 11 16.09 Mostly Cloudy FEW027 BKN041 BKN048 17 12     72%     1017.3 1016.5      
Jun 07 11:54 NE 13 16.09 Partly Cloudy SCT044 22 10     47%   21 1014.6 1013.6      
Jun 06 07:54 9 16.09 Partly Cloudy FEW040 SCT280 20 16     76%     1010.2 1009.2      
Jun 05 15:54 WSW 9 16.09 Light Rain FEW013 OVC060 20 18     90%     1009.5 1008.5 0